User: anonymous
Location: Young's Pond
(41.2695°N, 72.7766°W)
Time: 06:00:26
(UTC-04:00)
Language:

Spot 4 - Orbit

View from above orbital plane
View from above orbital plane
View from above satellite
View from above satellite

Ground track
Ground track

The orbit data is extracted from the following two-line orbital elements,

1 25260U 98017A   14106.56046083  .00000752  00000-0  19359-3 0  3149
2 25260 098.4676 169.8304 0012366 219.6561 140.3731 14.52936252833716
Epoch (UTC): 16 April 2014 13:27:03
Eccentricity: 0.0012366
inclination: 98.4676°
perigee height: 707 km
apogee height: 725 km
right ascension of ascending node: 169.8304°
argument of perigee: 219.6561°
revolutions per day: 14.52936252
mean anomaly at epoch: 140.3731°
orbit number at epoch: 83371

The dashed part of the orbit path shows where the satellite is in the earth's shadow,  

DLR